This is the latest recevied weather packets stored in our database for station/object EA3AGY-13. If no packets are shown the sender has not sent any weather packets the latest 10 day(s).
| Time | Temp. | Humidity | Pressure | Rain* | Wind** | Luminosity | Snow |
|---|---|---|---|---|---|---|---|
| 1777893418 | 14.44° C | 20% | 1011.6 hPa | 0 mm | - | - | - |
| 1777892814 | 14.44° C | 23% | 1011.6 hPa | 0 mm | - | - | - |
| 1777892212 | 14.44° C | 24% | 1011.7 hPa | 0 mm | - | - | - |
| 1777889803 | 15° C | 32% | 1011.8 hPa | 0 mm | - | - | - |
| 1777888598 | 14.44° C | 37% | 1011.9 hPa | 0 mm | - | - | - |
| 1777886791 | 13.33° C | 39% | 1012 hPa | 0 mm | - | - | - |
| 1777884381 | 12.78° C | 41% | 1012.1 hPa | 0 mm | - | - | - |
| 1777883778 | 12.78° C | 42% | 1012.1 hPa | 0 mm | - | - | - |
| 1777883177 | 12.22° C | 42% | 1012.1 hPa | 0 mm | - | - | - |
| 1777882574 | 10.56° C | 39% | 1012.3 hPa | 0 mm | - | - | - |
| 1777881369 | 11.11° C | 41% | 1012.4 hPa | 0 mm | - | - | - |
| 1777880768 | 10.56° C | 40% | 1012.4 hPa | 0 mm | - | - | - |
| 1777880164 | 10° C | 40% | 1012.4 hPa | 0 mm | - | - | - |
| 1777878358 | 10° C | 39% | 1012.3 hPa | 0 mm | - | - | - |
| 1777876551 | 10° C | 39% | 1012.3 hPa | 0 mm | - | - | - |
| 1777874743 | 8.89° C | 39% | 1012.2 hPa | 0 mm | - | - | - |
| 1777874142 | 8.89° C | 39% | 1012.2 hPa | 0 mm | - | - | - |
| 1777873540 | 8.89° C | 39% | 1012.1 hPa | 0 mm | - | - | - |
| 1777872936 | 9.44° C | 39% | 1012.1 hPa | 0 mm | - | - | - |
| 1777872334 | 8.89° C | 41% | 1012.1 hPa | 0 mm | - | - | - |
| 1777871733 | 8.33° C | 41% | 1012 hPa | 0 mm | - | - | - |
| 1777869926 | 8.33° C | 41% | 1011.9 hPa | 0 mm | - | - | - |
| 1777868719 | 7.78° C | 44% | 1012 hPa | 0 mm | - | - | - |
| 1777868118 | 7.22° C | 43% | 1012 hPa | 0 mm | - | - | - |
| 1777866912 | 7.22° C | 40% | 1012.2 hPa | 0 mm | - | - | - |
* Rain since midnight (hover to see other rain measurements)
** Current wind speed in m/s (hover to see current wind gust speed)